| time (UTC) | temp C | wind direction | speed KPH | gust KPH | rain 1hr cm | rain 24hr cm | rain mn cm | humidity % | barometer mb |
| 20260506202016 | 14 | 174 | 3.2 | 11.3 | 0.00 | 0.28 | 0.28 | 95 | 1008.5 |
| 20260506201015 | 14 | 179 | 3.2 | 8.0 | 0.00 | 0.28 | 0.28 | 95 | 1008.6 |
| 20260506200115 | 14 | 167 | 3.2 | 14.5 | 0.00 | 0.28 | 0.28 | 95 | 1008.7 |
| 20260506195015 | 13 | 170 | 4.8 | 9.7 | 0.03 | 0.28 | 0.28 | 95 | 1008.9 |
| 20260506194015 | 13 | 216 | 3.2 | 8.0 | 0.05 | 0.28 | 0.28 | 95 | 1009.0 |
| 20260506193115 | 13 | 185 | 4.8 | 16.1 | 0.08 | 0.28 | 0.28 | 94 | 1009.0 |
| 20260506192015 | 13 | 189 | 3.2 | 9.7 | 0.08 | 0.28 | 0.28 | 94 | 1009.1 |
| 20260506191015 | 13 | 190 | 4.8 | 11.3 | 0.13 | 0.28 | 0.28 | 94 | 1009.2 |
| 20260506190015 | 13 | 180 | 3.2 | 11.3 | 0.15 | 0.28 | 0.28 | 93 | 1009.3 |
| 20260506185015 | 13 | 180 | 4.8 | 17.7 | 0.18 | 0.25 | 0.25 | 93 | 1009.4 |
| 20260506184015 | 14 | 177 | 4.8 | 11.3 | 0.20 | 0.23 | 0.23 | 92 | 1009.5 |
| 20260506183015 | 14 | 173 | 6.4 | 14.5 | 0.20 | 0.20 | 0.20 | 91 | 1009.3 |
| 20260506182015 | 14 | 178 | 4.8 | 9.7 | 0.20 | 0.20 | 0.20 | 91 | 1009.5 |
| 20260506181115 | 15 | 166 | 6.4 | 14.5 | 0.15 | 0.15 | 0.15 | 90 | 1009.6 |
| 20260506180015 | 15 | 178 | 3.2 | 12.9 | 0.13 | 0.13 | 0.13 | 88 | 1009.9 |
| 20260506175015 | 15 | 167 | 3.2 | 11.3 | 0.08 | 0.08 | 0.08 | 86 | 1010.2 |
| 20260506174015 | 16 | 164 | 1.6 | 6.4 | 0.03 | 0.03 | 0.03 | 85 | 1010.4 |
| 20260506173015 | 16 | 154 | 3.2 | 6.4 | 0.00 | 0.00 | 0.00 | 83 | 1010.5 |
| 20260506172015 | 16 | 181 | 4.8 | 14.5 | 0.00 | 0.00 | 0.00 | 81 | 1010.6 |
| 20260506171016 | 17 | 179 | 4.8 | 11.3 | 0.00 | 0.00 | 0.00 | 79 | 1010.8 |
| 20260506170014 | 17 | 185 | 4.8 | 22.5 | 0.00 | 0.00 | 0.00 | 77 | 1010.9 |
| 20260506165015 | 18 | 194 | 4.8 | 24.1 | 0.00 | 0.00 | 0.00 | 76 | 1010.8 |
| 20260506164015 | 18 | 199 | 4.8 | 14.5 | 0.00 | 0.00 | 0.00 | 76 | 1010.7 |
| 20260506163015 | 18 | 195 | 4.8 | 14.5 | 0.00 | 0.00 | 0.00 | 75 | 1010.7 |
| 20260506162015 | 18 | 201 | 6.4 | 16.1 | 0.00 | 0.00 | 0.00 | 73 | 1010.9 |
| 20260506161017 | 18 | 190 | 6.4 | 16.1 | 0.00 | 0.00 | 0.00 | 73 | 1011.1 |
| 20260506160015 | 18 | 189 | 6.4 | 17.7 | 0.00 | 0.00 | 0.00 | 72 | 1011.2 |
| 20260506155017 | 19 | 190 | 6.4 | 14.5 | 0.00 | 0.00 | 0.00 | 71 | 1011.2 |
| 20260506154018 | 19 | 199 | 6.4 | 17.7 | 0.00 | 0.00 | 0.00 | 71 | 1011.1 |
| 20260506153117 | 20 | 193 | 4.8 | 12.9 | 0.00 | 0.00 | 0.00 | 70 | 1011.1 |
| 20260506152218 | 20 | 196 | 4.8 | 11.3 | 0.00 | 0.00 | 0.00 | 71 | 1011.2 |
| 20260506151018 | 20 | 190 | 8.0 | 24.1 | 0.00 | 0.00 | 0.00 | 71 | 1011.3 |
| 20260506150017 | 20 | 194 | 6.4 | 17.7 | 0.00 | 0.00 | 0.00 | 71 | 1011.3 |
| 20260506145016 | 20 | 188 | 4.8 | 11.3 | 0.00 | 0.00 | 0.00 | 71 | 1011.4 |
| 20260506144016 | 20 | 198 | 4.8 | 25.7 | 0.00 | 0.00 | 0.00 | 71 | 1011.4 |
| 20260506143016 | 19 | 182 | 8.0 | 19.3 | 0.00 | 0.00 | 0.00 | 72 | 1011.3 |
| 20260506142017 | 18 | 198 | 6.4 | 16.1 | 0.00 | 0.00 | 0.00 | 74 | 1011.4 |
| 20260506141016 | 18 | 196 | 4.8 | 11.3 | 0.00 | 0.00 | 0.00 | 75 | 1011.5 |
| 20260506140116 | 18 | 193 | 6.4 | 19.3 | 0.00 | 0.00 | 0.00 | 76 | 1011.3 |
| 20260506135017 | 18 | 181 | 4.8 | 14.5 | 0.00 | 0.00 | 0.00 | 76 | 1011.2 |
| 20260506134117 | 17 | 208 | 4.8 | 11.3 | 0.00 | 0.00 | 0.00 | 78 | 1011.2 |
| 20260506133016 | 17 | 192 | 6.4 | 12.9 | 0.00 | 0.00 | 0.00 | 79 | 1011.2 |
| 20260506132016 | 17 | 188 | 6.4 | 14.5 | 0.00 | 0.00 | 0.00 | 80 | 1011.1 |
| 20260506131016 | 17 | 191 | 4.8 | 9.7 | 0.00 | 0.00 | 0.00 | 81 | 1011.4 |
| 20260506130016 | 16 | 179 | 4.8 | 14.5 | 0.00 | 0.00 | 0.00 | 83 | 1011.6 |
| 20260506125016 | 16 | 192 | 4.8 | 9.7 | 0.00 | 0.00 | 0.00 | 85 | 1011.8 |
| 20260506124016 | 15 | 194 | 6.4 | 14.5 | 0.00 | 0.00 | 0.00 | 86 | 1011.8 |
| 20260506123017 | 15 | 192 | 4.8 | 12.9 | 0.00 | 0.00 | 0.00 | 88 | 1011.8 |
| 20260506122016 | 15 | 198 | 4.8 | 17.7 | 0.00 | 0.00 | 0.00 | 88 | 1011.7 |
| 20260506121016 | 15 | 188 | 4.8 | 12.9 | 0.00 | 0.00 | 0.00 | 88 | 1011.8 |
| 20260506120017 | 14 | 177 | 4.8 | 12.9 | 0.00 | 0.00 | 0.00 | 89 | 1011.8 |
| 20260506115018 | 14 | 196 | 4.8 | 9.7 | 0.00 | 0.00 | 0.00 | 89 | 1011.7 |
| 20260506114016 | 14 | 187 | 4.8 | 11.3 | 0.00 | 0.00 | 0.00 | 90 | 1011.6 |
| 20260506113016 | 14 | 188 | 6.4 | 14.5 | 0.00 | 0.00 | 0.00 | 90 | 1011.8 |
| 20260506112017 | 13 | 183 | 4.8 | 12.9 | 0.00 | 0.00 | 0.00 | 91 | 1011.9 |
| 20260506111016 | 13 | 191 | 4.8 | 9.7 | 0.00 | 0.00 | 0.00 | 91 | 1012.1 |
| 20260506110016 | 13 | 187 | 4.8 | 9.7 | 0.00 | 0.00 | 0.00 | 91 | 1011.9 |
| 20260506105016 | 13 | 199 | 4.8 | 8.0 | 0.00 | 0.00 | 0.00 | 92 | 1011.9 |
| 20260506104116 | 13 | 190 | 4.8 | 12.9 | 0.00 | 0.00 | 0.00 | 92 | 1011.9 |
| 20260506103016 | 13 | 198 | 4.8 | 6.4 | 0.00 | 0.00 | 0.00 | 91 | 1011.8 |
| 20260506102016 | 13 | 188 | 4.8 | 9.7 | 0.00 | 0.00 | 0.00 | 91 | 1011.8 |
| 20260506101016 | 13 | 187 | 3.2 | 8.0 | 0.00 | 0.00 | 0.00 | 91 | 1011.8 |
| 20260506100016 | 13 | 199 | 4.8 | 8.0 | 0.00 | 0.00 | 0.00 | 90 | 1011.8 |
| 20260506095017 | 13 | 189 | 4.8 | 11.3 | 0.00 | 0.00 | 0.00 | 90 | 1011.8 |
| 20260506094016 | 13 | 204 | 4.8 | 9.7 | 0.00 | 0.00 | 0.00 | 90 | 1011.8 |
| 20260506093016 | 13 | 173 | 4.8 | 11.3 | 0.00 | 0.00 | 0.00 | 90 | 1011.9 |
| 20260506092017 | 13 | 188 | 4.8 | 8.0 | 0.00 | 0.00 | 0.00 | 90 | 1012.0 |
| 20260506091016 | 13 | 190 | 4.8 | 9.7 | 0.00 | 0.00 | 0.00 | 89 | 1011.9 |
| 20260506090016 | 13 | 183 | 4.8 | 9.7 | 0.00 | 0.00 | 0.00 | 89 | 1011.9 |
| 20260506085016 | 13 | 185 | 4.8 | 9.7 | 0.00 | 0.00 | 0.00 | 89 | 1012.1 |
| 20260506084016 | 13 | 197 | 4.8 | 11.3 | 0.00 | 0.00 | 0.00 | 89 | 1012.1 |
| 20260506083016 | 13 | 172 | 4.8 | 12.9 | 0.00 | 0.00 | 0.00 | 88 | 1012.0 |
| 20260506082417 | 13 | 192 | 4.8 | 8.0 | 0.00 | 0.00 | 0.00 | 88 | 1012.0 |
| 20260506081016 | 13 | 174 | 4.8 | 8.0 | 0.00 | 0.00 | 0.00 | 88 | 1012.1 |
| 20260506073016 | 13 | 183 | 4.8 | 9.7 | 0.00 | 0.00 | 0.00 | 86 | 1012.3 |
| 20260506072016 | 13 | 191 | 4.8 | 14.5 | 0.00 | 0.00 | 0.00 | 86 | 1012.4 |
| 20260506071016 | 14 | 187 | 4.8 | 11.3 | 0.00 | 0.00 | 0.00 | 85 | 1012.3 |
| 20260506070117 | 14 | 194 | 4.8 | 11.3 | 0.00 | 0.00 | 0.00 | 85 | 1012.2 |
| 20260506062016 | 14 | 203 | 4.8 | 11.3 | 0.00 | 0.00 | 0.00 | 84 | 1012.2 |
| 20260506061116 | 15 | 187 | 4.8 | 14.5 | 0.00 | 0.00 | 0.00 | 83 | 1012.3 |
| 20260506051016 | 15 | 194 | 6.4 | 11.3 | 0.00 | 0.00 | 0.00 | 80 | 1012.7 |
| 20260506045017 | 16 | 193 | 6.4 | 12.9 | 0.00 | 0.00 | 0.00 | 79 | 1012.9 |
| 20260506044016 | 16 | 198 | 6.4 | 12.9 | 0.00 | 0.00 | 0.00 | 79 | 1012.8 |
| 20260506043016 | 16 | 196 | 6.4 | 16.1 | 0.00 | 0.00 | 0.00 | 79 | 1012.9 |
| 20260506042016 | 16 | 197 | 4.8 | 12.9 | 0.00 | 0.00 | 0.00 | 78 | 1012.8 |
| 20260506041015 | 16 | 196 | 6.4 | 17.7 | 0.00 | 0.00 | 0.00 | 77 | 1012.8 |
| 20260506040016 | 16 | 196 | 6.4 | 11.3 | 0.00 | 0.00 | 0.00 | 76 | 1012.9 |
| 20260506035015 | 16 | 190 | 4.8 | 12.9 | 0.00 | 0.00 | 0.00 | 75 | 1013.0 |
| 20260506034016 | 16 | 197 | 4.8 | 11.3 | 0.00 | 0.00 | 0.00 | 74 | 1013.0 |
| 20260506033015 | 16 | 191 | 4.8 | 11.3 | 0.00 | 0.00 | 0.00 | 73 | 1012.9 |
| 20260506032015 | 16 | 186 | 6.4 | 24.1 | 0.00 | 0.00 | 0.00 | 73 | 1012.9 |
| 20260506031015 | 16 | 194 | 6.4 | 14.5 | 0.00 | 0.00 | 0.00 | 73 | 1012.7 |
| 20260506030016 | 16 | 197 | 6.4 | 14.5 | 0.00 | 0.00 | 0.00 | 73 | 1012.7 |
| 20260506025016 | 16 | 184 | 6.4 | 17.7 | 0.00 | 0.00 | 0.00 | 73 | 1012.6 |
| 20260506024015 | 16 | 179 | 6.4 | 17.7 | 0.00 | 0.00 | 0.00 | 73 | 1012.6 |
| 20260506023015 | 16 | 191 | 6.4 | 12.9 | 0.00 | 0.00 | 0.00 | 73 | 1012.5 |
| 20260506022015 | 16 | 193 | 6.4 | 12.9 | 0.00 | 0.00 | 0.00 | 72 | 1012.6 |
| 20260506021015 | 16 | 194 | 6.4 | 11.3 | 0.00 | 0.00 | 0.00 | 72 | 1012.5 |
| 20260506020017 | 16 | 186 | 6.4 | 16.1 | 0.00 | 0.00 | 0.00 | 72 | 1012.4 |
| 20260506015015 | 16 | 191 | 6.4 | 12.9 | 0.00 | 0.00 | 0.00 | 71 | 1012.4 |
| 20260506014115 | 16 | 186 | 4.8 | 12.9 | 0.00 | 0.00 | 0.00 | 71 | 1012.3 |
| 20260506013015 | 16 | 200 | 6.4 | 14.5 | 0.00 | 0.00 | 0.00 | 71 | 1012.1 |
| 20260506012016 | 16 | 201 | 6.4 | 12.9 | 0.00 | 0.00 | 0.00 | 70 | 1012.0 |
| 20260506011015 | 16 | 200 | 6.4 | 14.5 | 0.00 | 0.00 | 0.00 | 69 | 1011.9 |
| 20260506010015 | 16 | 193 | 3.2 | 11.3 | 0.00 | 0.00 | 0.00 | 69 | 1011.8 |
| 20260506005016 | 16 | 188 | 4.8 | 16.1 | 0.00 | 0.00 | 0.00 | 69 | 1011.6 |
| 20260506004015 | 17 | 192 | 4.8 | 9.7 | 0.00 | 0.00 | 0.00 | 69 | 1011.4 |
| 20260506003017 | 17 | 189 | 4.8 | 14.5 | 0.00 | 0.00 | 0.00 | 68 | 1011.2 |
| 20260506002116 | 17 | 180 | 4.8 | 14.5 | 0.00 | 0.00 | 0.00 | 68 | 1011.0 |
| 20260506001116 | 17 | 190 | 4.8 | 11.3 | 0.00 | 0.00 | 0.00 | 68 | 1010.8 |
| 20260506000016 | 17 | 192 | 6.4 | 9.7 | 0.00 | 0.00 | 0.00 | 67 | 1010.5 |
| 20260505235015 | 17 | 180 | 6.4 | 19.3 | 0.00 | 0.00 | 0.00 | 66 | 1010.4 |
| 20260505234015 | 18 | 184 | 6.4 | 12.9 | 0.00 | 0.00 | 0.00 | 66 | 1010.5 |
| 20260505233016 | 18 | 177 | 4.8 | 12.9 | 0.00 | 0.00 | 0.00 | 65 | 1010.2 |
| 20260505232016 | 18 | 189 | 4.8 | 16.1 | 0.00 | 0.00 | 0.00 | 64 | 1010.1 |
| 20260505231015 | 19 | 186 | 8.0 | 16.1 | 0.00 | 0.00 | 0.00 | 63 | 1010.0 |
| 20260505230015 | 19 | 186 | 6.4 | 14.5 | 0.00 | 0.00 | 0.00 | 62 | 1009.9 |
| 20260505225015 | 19 | 183 | 6.4 | 14.5 | 0.00 | 0.00 | 0.00 | 62 | 1009.7 |
| 20260505224015 | 20 | 194 | 8.0 | 20.9 | 0.00 | 0.00 | 0.00 | 61 | 1009.6 |
| 20260505223015 | 20 | 184 | 8.0 | 17.7 | 0.00 | 0.00 | 0.00 | 59 | 1010.0 |
| 20260505222015 | 21 | 182 | 6.4 | 17.7 | 0.00 | 0.00 | 0.00 | 58 | 1010.0 |
| 20260505221015 | 21 | 178 | 6.4 | 20.9 | 0.00 | 0.00 | 0.00 | 58 | 1010.0 |
| 20260505220115 | 21 | 191 | 4.8 | 12.9 | 0.00 | 0.00 | 0.00 | 57 | 1009.8 |
| 20260505215015 | 21 | 188 | 8.0 | 19.3 | 0.00 | 0.00 | 0.00 | 57 | 1009.8 |
| 20260505214015 | 21 | 183 | 8.0 | 19.3 | 0.00 | 0.00 | 0.00 | 56 | 1009.6 |
| 20260505213115 | 22 | 189 | 8.0 | 20.9 | 0.00 | 0.00 | 0.00 | 56 | 1009.6 |
| 20260505212016 | 22 | 180 | 6.4 | 17.7 | 0.00 | 0.00 | 0.00 | 55 | 1009.7 |
| 20260505211015 | 22 | 188 | 6.4 | 16.1 | 0.00 | 0.00 | 0.00 | 56 | 1009.7 |
| 20260505210115 | 22 | 186 | 6.4 | 19.3 | 0.00 | 0.00 | 0.00 | 55 | 1009.7 |
| 20260505205015 | 22 | 176 | 6.4 | 19.3 | 0.00 | 0.00 | 0.00 | 55 | 1009.7 |
| 20260505204017 | 22 | 189 | 8.0 | 11.3 | 0.00 | 0.00 | 0.00 | 54 | 1009.7 |
| 20260505203906 | 22 | 203 | 6.4 | 11.3 | 0.00 | 0.00 | 0.00 | 54 | 1009.7 |
| 20260505202517 | 23 | 184 | 6.4 | 17.7 | 0.00 | 0.00 | 0.00 | 53 | 1009.8 |